Location: Ford County Road and Bridge Department
(37.7686°N, 99.9762°W)
Time: 03:26:40
(UTC+00:00)

COSMOS 2428 - Pass Details

Date: 18 January 2020
Orbit: 844 x 858 km, 70.9° (Epoch: 17 February)

Event Time Altitude Azimuth Distance (km) Brightness Sun altitude
Rises 00:34:57 0° 342° (NNW) 3,437 5.9 -9.7°
Reaches altitude 10° 00:37:30 10° 348° (NNW) 2,498 5.1 -10.1°
Maximum altitude 00:43:05 50° 64° (ENE) 1,077 2.9 -11.2°
Drops below altitude 10° 00:48:37 10° 139° (SE) 2,482 4.9 -12.2°
Sets 00:51:08 0° 145° (SE) 3,413 5.7 -12.7°
